Saint Simons Island, GA

2:25 PM EST on December 08, 2019 (GMT -0500)
McKinnon

Weather History for KSSI - October, 2019

Change the Weather History Date:

Sunday, October 13, 2019

  Actual Average Record
Temperature  
Mean Temperature 78 °F 71 °F  
Max Temperature 84 °F 79 °F 87 °F (1982)
Min Temperature 72 °F 64 °F 48 °F (1977)
Degree Days  
Heating Degree Days 0 1  
Month to date heating degree days 0 3  
Since 1 July heating degree days 0 3  
Cooling Degree Days 13 7  
Month to date cooling degree days 179 107  
Year to date cooling degree days 3166 2478  
Growing Degree Days 27 (Base 50)    
Moisture  
Dew Point 66 °F    
Average Humidity 71    
Maximum Humidity 84    
Minimum Humidity 58    
Precipitation  
Precipitation 0.00 in 0.16 in 0.55 in (1978)
Month to date precipitation 0.41 2.32  
Year to date precipitation 27.51 38.19  
Snow  
Snow 0.00 in - 0.00 in ()
Month to date snowfall 0.0  
Since 1 July snowfall 0.0  
Since 1 September snowfall 0.0  
Snow Depth 0.00 in    
Sea Level Pressure  
Sea Level Pressure 30.05 in    
Wind  
Wind Speed 8 mph (South)    
Max Wind Speed 16 mph    
Max Gust Speed 19 mph    
Visibility 10 miles    
Events      
T = Trace of Precipitation, MM = Missing Value Source: NWS Daily Summary

Daily Weather History Graph

Daily Weather History Graph

Search for Another Location

Airport or City:

Astronomy

Oct. 13, 2019 Rise Set
Actual Time 7:26 AM EDT 6:56 PM EDT
Civil Twilight 7:02 AM EDT 7:20 PM EDT
Nautical Twilight 6:34 AM EDT 7:48 PM EDT
Astronomical Twilight 6:06 AM EDT 8:16 PM EDT
Moon 7:14 PM EDT (10/13) 7:05 AM EDT (10/13)
Length of Visible Light 12h 18m
Length of Day
11h 29m
Full, 100% of the Moon is Illuminated
Oct 13
Full
Oct 13
Full
Oct 21
Last Quarter
Oct 27
New
Nov 4
First Quarter

Hourly Weather History & Observations

Time (EDT) Temp. Heat Index Dew Point Humidity Pressure Visibility Wind Dir Wind Speed Gust Speed Precip Events Conditions
12:53 AM 77.0 °F - 66.0 °F 69% 30.04 in 10.0 mi South 6.9 mph - N/A   Clear
1:53 AM 77.0 °F - 66.0 °F 69% 30.03 in 10.0 mi South 6.9 mph - N/A   Clear
2:53 AM 75.9 °F - 66.0 °F 71% 30.03 in 10.0 mi SSW 4.6 mph - N/A   Clear
3:53 AM 73.0 °F - 66.9 °F 81% 30.02 in 10.0 mi SSW 4.6 mph - N/A   Clear
4:53 AM 73.9 °F - 66.9 °F 79% 30.02 in 10.0 mi SSW 6.9 mph - N/A   Clear
5:53 AM 73.0 °F - 66.9 °F 81% 30.04 in 10.0 mi SW 5.8 mph - N/A   Clear
6:53 AM 73.0 °F - 66.0 °F 79% 30.05 in 10.0 mi SW 5.8 mph - N/A   Clear
7:53 AM 72.0 °F - 66.9 °F 84% 30.06 in 10.0 mi SW 6.9 mph - N/A   Clear
8:53 AM 75.0 °F - 68.0 °F 79% 30.07 in 10.0 mi WSW 6.9 mph - N/A   Clear
9:53 AM 78.1 °F - 66.9 °F 68% 30.08 in 10.0 mi SW 9.2 mph - N/A   Clear
10:53 AM 80.1 °F 82.1 °F 66.0 °F 62% 30.09 in 10.0 mi SW 9.2 mph - N/A   Clear
11:53 AM 82.0 °F 84.1 °F 66.0 °F 58% 30.08 in 10.0 mi SW 8.1 mph - N/A   Partly Cloudy
1:53 PM 82.9 °F 85.4 °F 66.9 °F 58% 30.05 in 10.0 mi SE 9.2 mph - N/A   Clear
2:53 PM 82.0 °F 84.1 °F 66.0 °F 58% 30.04 in 10.0 mi SSE 9.2 mph - N/A   Partly Cloudy
3:53 PM 81.0 °F 83.3 °F 66.9 °F 62% 30.02 in 10.0 mi SSE 9.2 mph - N/A   Clear
4:53 PM 81.0 °F 83.3 °F 66.9 °F 62% 30.02 in 10.0 mi SSE 10.4 mph - N/A   Clear
5:53 PM 79.0 °F - 66.0 °F 64% 30.04 in 10.0 mi SSE 5.8 mph 17.3 mph N/A   Clear
6:53 PM 79.0 °F - 64.9 °F 62% 30.04 in 10.0 mi SSE 11.5 mph - N/A   Clear
7:53 PM 78.1 °F - 64.9 °F 64% 30.04 in 10.0 mi SSE 6.9 mph - N/A   Clear
8:53 PM 78.1 °F - 64.9 °F 64% 30.05 in 10.0 mi SSE 11.5 mph - N/A   Clear
9:53 PM 78.1 °F - 64.9 °F 64% 30.05 in 10.0 mi SSE 9.2 mph - N/A   Clear
10:53 PM 78.1 °F - 64.9 °F 64% 30.04 in 10.0 mi SSE 10.4 mph - N/A   Clear
11:53 PM 78.1 °F - 66.0 °F 66% 30.05 in 10.0 mi South 8.1 mph - N/A   Clear